owner,sensor,date,latitude,longitude,vertical_datum,wind_speed,wind_to_direction,wind_speed_of_gust,qcFlag 
TCOON,ioos:station:TCOON:009:1,2009-03-01T00:00:00Z,27.8398,-97.0727,0.0,7.9,360.0,9.8,'11111222,11144222,11111222' 
TCOON,ioos:station:TCOON:009:1,2009-03-01T01:00:00Z,27.8398,-97.0727,0.0,6.4,1.0,8.2,'11111222,11111222,11111222' 
TCOON,ioos:station:TCOON:009:1,2009-03-01T03:00:00Z,27.8398,-97.0727,0.0,5.9,6.0,7.8,'11111222,11111222,11111222' 
TCOON,ioos:station:TCOON:009:1,2009-03-01T04:00:00Z,27.8398,-97.0727,0.0,7.7,2.0,10.7,'11111222,11111222,11111222' 
TCOON,ioos:station:TCOON:009:1,2009-03-01T05:00:00Z,27.8398,-97.0727,0.0,8.3,10.0,11.4,'11111222,11111222,11111222' 
TCOON,ioos:station:TCOON:009:1,2009-03-01T06:00:00Z,27.8398,-97.0727,0.0,8.4,6.0,11.0,'11111222,11111222,11111222' 
TCOON,ioos:station:TCOON:009:1,2009-03-01T07:00:00Z,27.8398,-97.0727,0.0,8.3,2.0,10.4,'11111222,11111222,11111222' 
TCOON,ioos:station:TCOON:009:1,2009-03-01T08:00:00Z,27.8398,-97.0727,0.0,7.7,3.0,9.8,'11111222,11111222,11111222' 
TCOON,ioos:station:TCOON:009:1,2009-03-01T09:00:00Z,27.8398,-97.0727,0.0,7.3,3.0,9.6,'11111222,11111222,11111222' 
TCOON,ioos:station:TCOON:009:1,2009-03-01T10:00:00Z,27.8398,-97.0727,0.0,6.8,358.0,8.7,'11111222,11111222,11111222' 
TCOON,ioos:station:TCOON:009:1,2009-03-01T11:00:00Z,27.8398,-97.0727,0.0,9.6,355.0,12.3,'11111222,11111222,11111222' 
TCOON,ioos:station:TCOON:009:1,2009-03-01T12:00:00Z,27.8398,-97.0727,0.0,8.6,354.0,10.3,'11111222,11111222,11111222' 
TCOON,ioos:station:TCOON:009:1,2009-03-01T13:00:00Z,27.8398,-97.0727,0.0,8.3,354.0,11.1,'11111222,11111222,11111222' 
TCOON,ioos:station:TCOON:009:1,2009-03-01T14:00:00Z,27.8398,-97.0727,0.0,7.5,359.0,10.5,'11111222,11111222,11111222' 
TCOON,ioos:station:TCOON:009:1,2009-03-01T16:00:00Z,27.8398,-97.0727,0.0,8.4,5.0,10.2,'11111222,11111222,11111222' 
TCOON,ioos:station:TCOON:009:1,2009-03-01T17:00:00Z,27.8398,-97.0727,0.0,7.6,11.0,9.1,'11111222,11111222,11111222' 
TCOON,ioos:station:TCOON:009:1,2009-03-01T18:00:00Z,27.8398,-97.0727,0.0,6.8,355.0,8.5,'11111222,11111222,11111222' 
TCOON,ioos:station:TCOON:009:1,2009-03-01T19:00:00Z,27.8398,-97.0727,0.0,5.6,344.0,8.2,'11111222,11111222,11111222' 
TCOON,ioos:station:TCOON:009:1,2009-03-01T20:00:00Z,27.8398,-97.0727,0.0,5.7,342.0,7.7,'11111222,11111222,11111222' 
TCOON,ioos:station:TCOON:009:1,2009-03-01T21:00:00Z,27.8398,-97.0727,0.0,4.9,1.0,6.4,'11111222,11111222,11111222' 
TCOON,ioos:station:TCOON:009:1,2009-03-01T22:00:00Z,27.8398,-97.0727,0.0,4.9,4.0,6.1,'11111222,11111222,11111222' 
TCOON,ioos:station:TCOON:009:1,2009-03-01T23:00:00Z,27.8398,-97.0727,0.0,4.7,28.0,5.4,'11111222,11111222,11111222' 
TCOON,ioos:station:TCOON:009:1,2009-03-02T00:00:00Z,27.8398,-97.0727,0.0,2.7,42.0,3.2,'11111222,11111222,11111222' 
TCOON,ioos:station:TCOON:009:1,2009-03-02T01:00:00Z,27.8398,-97.0727,0.0,0.5,36.0,0.6,'11111222,11111222,11111222' 
TCOON,ioos:station:TCOON:009:1,2009-03-02T02:00:00Z,27.8398,-97.0727,0.0,0.0,40.0,0.3,'11111222,11111222,11111222' 
TCOON,ioos:station:TCOON:009:1,2009-03-02T03:00:00Z,27.8398,-97.0727,0.0,1.1,29.0,1.4,'11111222,11111222,11111222' 
TCOON,ioos:station:TCOON:009:1,2009-03-02T04:00:00Z,27.8398,-97.0727,0.0,1.0,31.0,1.3,'11111222,11111222,11111222' 
TCOON,ioos:station:TCOON:009:1,2009-03-02T05:00:00Z,27.8398,-97.0727,0.0,0.4,75.0,0.6,'11111222,11111222,11111222' 
TCOON,ioos:station:TCOON:009:1,2009-03-02T06:00:00Z,27.8398,-97.0727,0.0,0.7,10.0,1.0,'11111222,11111222,11111222' 
TCOON,ioos:station:TCOON:009:1,2009-03-02T07:00:00Z,27.8398,-97.0727,0.0,2.9,21.0,3.5,'11111222,11111222,11111222' 
TCOON,ioos:station:TCOON:009:1,2009-03-02T08:00:00Z,27.8398,-97.0727,0.0,1.1,44.0,1.6,'11111222,11111222,11111222' 
TCOON,ioos:station:TCOON:009:1,2009-03-02T09:00:00Z,27.8398,-97.0727,0.0,3.0,31.0,3.8,'11111222,11111222,11111222' 
TCOON,ioos:station:TCOON:009:1,2009-03-02T10:00:00Z,27.8398,-97.0727,0.0,3.3,32.0,4.0,'11111222,11111222,11111222' 
TCOON,ioos:station:TCOON:009:1,2009-03-02T11:00:00Z,27.8398,-97.0727,0.0,2.8,31.0,3.4,'11111222,11111222,11111222' 
TCOON,ioos:station:TCOON:009:1,2009-03-02T12:00:00Z,27.8398,-97.0727,0.0,3.5,28.0,4.1,'11111222,11111222,11111222' 
TCOON,ioos:station:TCOON:009:1,2009-03-02T13:00:00Z,27.8398,-97.0727,0.0,3.8,33.0,4.4,'11111222,11111222,11111222' 
TCOON,ioos:station:TCOON:009:1,2009-03-02T14:00:00Z,27.8398,-97.0727,0.0,2.5,42.0,2.8,'11111222,11111222,11111222' 
TCOON,ioos:station:TCOON:009:1,2009-03-02T15:00:00Z,27.8398,-97.0727,0.0,3.1,82.0,3.9,'11111222,11111222,11111222' 
TCOON,ioos:station:TCOON:009:1,2009-03-02T16:00:00Z,27.8398,-97.0727,0.0,2.8,70.0,3.3,'11111222,11111222,11111222' 
TCOON,ioos:station:TCOON:009:1,2009-03-02T17:00:00Z,27.8398,-97.0727,0.0,3.7,82.0,4.8,'11111222,11111222,11111222' 
TCOON,ioos:station:TCOON:009:1,2009-03-02T18:00:00Z,27.8398,-97.0727,0.0,3.8,97.0,4.8,'11111222,11111222,11111222' 
TCOON,ioos:station:TCOON:009:1,2009-03-02T19:00:00Z,27.8398,-97.0727,0.0,4.7,75.0,5.8,'11111222,11111222,11111222' 
TCOON,ioos:station:TCOON:009:1,2009-03-02T21:00:00Z,27.8398,-97.0727,0.0,4.8,89.0,6.5,'11111222,11111222,11111222' 
TCOON,ioos:station:TCOON:009:1,2009-03-02T22:00:00Z,27.8398,-97.0727,0.0,4.5,106.0,6.0,'11111222,11111222,11111222' 
TCOON,ioos:station:TCOON:009:1,2009-03-02T23:00:00Z,27.8398,-97.0727,0.0,4.6,111.0,6.3,'11111222,11111222,11111222' 
TCOON,ioos:station:TCOON:009:1,2009-03-03T00:00:00Z,27.8398,-97.0727,0.0,4.5,116.0,6.6,'11111222,11111222,11111222' 
TCOON,ioos:station:TCOON:009:1,2009-03-03T01:00:00Z,27.8398,-97.0727,0.0,4.2,131.0,5.8,'11111222,11111222,11111222' 
TCOON,ioos:station:TCOON:009:1,2009-03-03T02:00:00Z,27.8398,-97.0727,0.0,3.5,138.0,5.1,'11111222,11111222,11111222' 
TCOON,ioos:station:TCOON:009:1,2009-03-03T03:00:00Z,27.8398,-97.0727,0.0,4.0,133.0,5.5,'11111222,11111222,11111222' 
TCOON,ioos:station:TCOON:009:1,2009-03-03T04:00:00Z,27.8398,-97.0727,0.0,4.5,135.0,6.0,'11111222,11111222,11111222' 
TCOON,ioos:station:TCOON:009:1,2009-03-03T05:00:00Z,27.8398,-97.0727,0.0,3.6,142.0,5.3,'11111222,11111222,11111222' 
TCOON,ioos:station:TCOON:009:1,2009-03-03T06:00:00Z,27.8398,-97.0727,0.0,3.4,145.0,4.9,'11111222,11111222,11111222' 
TCOON,ioos:station:TCOON:009:1,2009-03-03T07:00:00Z,27.8398,-97.0727,0.0,2.6,148.0,3.7,'11111222,11111222,11111222' 
TCOON,ioos:station:TCOON:009:1,2009-03-03T08:00:00Z,27.8398,-97.0727,0.0,3.0,154.0,4.8,'11111222,11111222,11111222' 
TCOON,ioos:station:TCOON:009:1,2009-03-03T09:00:00Z,27.8398,-97.0727,0.0,2.2,155.0,3.7,'11111222,11111222,11111222' 
TCOON,ioos:station:TCOON:009:1,2009-03-03T10:00:00Z,27.8398,-97.0727,0.0,1.5,154.0,2.7,'11111222,11111222,11111222' 
TCOON,ioos:station:TCOON:009:1,2009-03-03T11:00:00Z,27.8398,-97.0727,0.0,1.4,155.0,1.9,'11111222,11111222,11111222' 
TCOON,ioos:station:TCOON:009:1,2009-03-03T12:00:00Z,27.8398,-97.0727,0.0,1.4,129.0,1.6,'11111222,11111222,11111222' 
TCOON,ioos:station:TCOON:009:1,2009-03-03T13:00:00Z,27.8398,-97.0727,0.0,1.7,99.0,2.0,'11111222,11111222,11111222' 
TCOON,ioos:station:TCOON:009:1,2009-03-03T14:00:00Z,27.8398,-97.0727,0.0,2.7,122.0,3.7,'11111222,11111222,11111222' 
TCOON,ioos:station:TCOON:009:1,2009-03-03T15:00:00Z,27.8398,-97.0727,0.0,4.0,128.0,5.9,'11111222,11111222,11111222' 
TCOON,ioos:station:TCOON:009:1,2009-03-03T16:00:00Z,27.8398,-97.0727,0.0,5.8,127.0,7.1,'11111222,11111222,11111222' 
TCOON,ioos:station:TCOON:009:1,2009-03-03T17:00:00Z,27.8398,-97.0727,0.0,4.2,117.0,6.6,'11111222,11111222,11111222' 
TCOON,ioos:station:TCOON:009:1,2009-03-03T18:00:00Z,27.8398,-97.0727,0.0,5.5,118.0,7.1,'11111222,11111222,11111222' 
TCOON,ioos:station:TCOON:009:1,2009-03-03T19:00:00Z,27.8398,-97.0727,0.0,5.9,116.0,7.4,'11111222,11111222,11111222' 
TCOON,ioos:station:TCOON:009:1,2009-03-03T20:00:00Z,27.8398,-97.0727,0.0,6.0,134.0,7.5,'11111222,11111222,11111222' 
TCOON,ioos:station:TCOON:009:1,2009-03-03T21:00:00Z,27.8398,-97.0727,0.0,6.6,124.0,8.7,'11111222,11111222,11111222' 
TCOON,ioos:station:TCOON:009:1,2009-03-03T22:00:00Z,27.8398,-97.0727,0.0,4.5,136.0,6.5,'11111222,11111222,11111222' 
TCOON,ioos:station:TCOON:009:1,2009-03-03T23:00:00Z,27.8398,-97.0727,0.0,4.7,129.0,6.7,'11111222,11111222,11111222' 
TCOON,ioos:station:TCOON:009:1,2009-03-04T00:00:00Z,27.8398,-97.0727,0.0,3.9,134.0,5.0,'11111222,11111222,11111222' 
TCOON,ioos:station:TCOON:009:1,2009-03-04T01:00:00Z,27.8398,-97.0727,0.0,3.2,137.0,5.1,'11111222,11111222,11111222' 
TCOON,ioos:station:TCOON:009:1,2009-03-04T02:00:00Z,27.8398,-97.0727,0.0,3.8,149.0,6.2,'11111222,11111222,11111222' 
TCOON,ioos:station:TCOON:009:1,2009-03-04T03:00:00Z,27.8398,-97.0727,0.0,3.2,155.0,5.3,'11111222,11111222,11111222' 
TCOON,ioos:station:TCOON:009:1,2009-03-04T04:00:00Z,27.8398,-97.0727,0.0,3.3,159.0,5.5,'11111222,11111222,11111222' 
TCOON,ioos:station:TCOON:009:1,2009-03-04T05:00:00Z,27.8398,-97.0727,0.0,4.1,163.0,6.6,'11111222,11111222,11111222' 
TCOON,ioos:station:TCOON:009:1,2009-03-04T06:00:00Z,27.8398,-97.0727,0.0,3.5,165.0,5.3,'11111222,11111222,11111222' 
TCOON,ioos:station:TCOON:009:1,2009-03-04T07:00:00Z,27.8398,-97.0727,0.0,3.1,176.0,5.1,'11111222,11111222,11111222' 
TCOON,ioos:station:TCOON:009:1,2009-03-04T08:00:00Z,27.8398,-97.0727,0.0,3.0,172.0,4.5,'11111222,11111222,11111222' 
TCOON,ioos:station:TCOON:009:1,2009-03-04T09:00:00Z,27.8398,-97.0727,0.0,3.7,181.0,5.8,'11111222,11111222,11111222' 
TCOON,ioos:station:TCOON:009:1,2009-03-04T10:00:00Z,27.8398,-97.0727,0.0,3.9,187.0,5.6,'11111222,11111222,11111222' 
TCOON,ioos:station:TCOON:009:1,2009-03-04T11:00:00Z,27.8398,-97.0727,0.0,4.2,181.0,6.1,'11111222,11111222,11111222' 
TCOON,ioos:station:TCOON:009:1,2009-03-04T12:00:00Z,27.8398,-97.0727,0.0,4.2,173.0,6.3,'11111222,11111222,11111222' 
TCOON,ioos:station:TCOON:009:1,2009-03-04T13:00:00Z,27.8398,-97.0727,0.0,3.7,158.0,5.6,'11111222,11111222,11111222' 
TCOON,ioos:station:TCOON:009:1,2009-03-04T14:00:00Z,27.8398,-97.0727,0.0,4.2,159.0,7.5,'11111222,11111222,11111222' 
TCOON,ioos:station:TCOON:009:1,2009-03-04T15:00:00Z,27.8398,-97.0727,0.0,3.6,157.0,5.2,'11111222,11111222,11111222' 
TCOON,ioos:station:TCOON:009:1,2009-03-04T16:00:00Z,27.8398,-97.0727,0.0,4.2,155.0,5.6,'11111222,11111222,11111222' 
TCOON,ioos:station:TCOON:009:1,2009-03-04T17:00:00Z,27.8398,-97.0727,0.0,4.9,160.0,7.4,'11111222,11111222,11111222' 
TCOON,ioos:station:TCOON:009:1,2009-03-04T18:00:00Z,27.8398,-97.0727,0.0,5.6,163.0,8.6,'11111222,11111222,11111222' 
TCOON,ioos:station:TCOON:009:1,2009-03-04T19:00:00Z,27.8398,-97.0727,0.0,6.1,167.0,9.0,'11111222,11111222,11111222' 
TCOON,ioos:station:TCOON:009:1,2009-03-04T20:00:00Z,27.8398,-97.0727,0.0,5.8,154.0,9.1,'11111222,11111222,11111222' 
TCOON,ioos:station:TCOON:009:1,2009-03-04T21:00:00Z,27.8398,-97.0727,0.0,4.9,153.0,7.6,'11111222,11111222,11111222' 
TCOON,ioos:station:TCOON:009:1,2009-03-04T23:00:00Z,27.8398,-97.0727,0.0,4.6,140.0,6.9,'11111222,11111222,11111222' 
TCOON,ioos:station:TCOON:009:1,2009-03-05T00:00:00Z,27.8398,-97.0727,0.0,4.1,137.0,6.3,'11111222,11111222,11111222' 
TCOON,ioos:station:TCOON:009:1,2009-03-05T01:00:00Z,27.8398,-97.0727,0.0,4.2,149.0,7.1,'11111222,11111222,11111222' 
TCOON,ioos:station:TCOON:009:1,2009-03-05T02:00:00Z,27.8398,-97.0727,0.0,5.1,155.0,7.9,'11111222,11111222,11111222' 
TCOON,ioos:station:TCOON:009:1,2009-03-05T03:00:00Z,27.8398,-97.0727,0.0,5.0,153.0,7.3,'11111222,11111222,11111222' 
TCOON,ioos:station:TCOON:009:1,2009-03-05T04:00:00Z,27.8398,-97.0727,0.0,4.3,157.0,6.5,'11111222,11111222,11111222' 
TCOON,ioos:station:TCOON:009:1,2009-03-05T05:00:00Z,27.8398,-97.0727,0.0,5.0,156.0,7.6,'11111222,11111222,11111222' 
TCOON,ioos:station:TCOON:009:1,2009-03-05T06:00:00Z,27.8398,-97.0727,0.0,5.0,165.0,7.5,'11111222,11111222,11111222' 
TCOON,ioos:station:TCOON:009:1,2009-03-05T07:00:00Z,27.8398,-97.0727,0.0,3.9,164.0,5.8,'11111222,11111222,11111222' 
TCOON,ioos:station:TCOON:009:1,2009-03-05T08:00:00Z,27.8398,-97.0727,0.0,4.5,163.0,7.2,'11111222,11111222,11111222' 
TCOON,ioos:station:TCOON:009:1,2009-03-05T09:00:00Z,27.8398,-97.0727,0.0,3.9,164.0,7.0,'11111222,11111222,11111222' 
TCOON,ioos:station:TCOON:009:1,2009-03-05T10:00:00Z,27.8398,-97.0727,0.0,5.0,159.0,7.0,'11111222,11111222,11111222' 
TCOON,ioos:station:TCOON:009:1,2009-03-05T11:00:00Z,27.8398,-97.0727,0.0,3.4,166.0,5.7,'11111222,11111222,11111222' 
TCOON,ioos:station:TCOON:009:1,2009-03-05T12:00:00Z,27.8398,-97.0727,0.0,2.9,163.0,4.3,'11111222,11111222,11111222' 
TCOON,ioos:station:TCOON:009:1,2009-03-05T13:00:00Z,27.8398,-97.0727,0.0,3.0,158.0,4.7,'11111222,11111222,11111222' 
TCOON,ioos:station:TCOON:009:1,2009-03-05T14:00:00Z,27.8398,-97.0727,0.0,3.4,159.0,5.7,'11111222,11111222,11111222' 
TCOON,ioos:station:TCOON:009:1,2009-03-05T15:00:00Z,27.8398,-97.0727,0.0,4.9,166.0,7.8,'11111222,11111222,11111222' 
TCOON,ioos:station:TCOON:009:1,2009-03-05T16:00:00Z,27.8398,-97.0727,0.0,3.9,158.0,6.3,'11111222,11111222,11111222' 
TCOON,ioos:station:TCOON:009:1,2009-03-05T17:00:00Z,27.8398,-97.0727,0.0,5.4,159.0,8.2,'11111222,11111222,11111222' 
TCOON,ioos:station:TCOON:009:1,2009-03-05T18:00:00Z,27.8398,-97.0727,0.0,3.9,141.0,6.7,'11111222,11111222,11111222' 
TCOON,ioos:station:TCOON:009:1,2009-03-05T19:00:00Z,27.8398,-97.0727,0.0,6.1,155.0,8.2,'11111222,11111222,11111222' 
TCOON,ioos:station:TCOON:009:1,2009-03-05T20:00:00Z,27.8398,-97.0727,0.0,5.1,134.0,8.4,'11111222,11111222,11111222' 
TCOON,ioos:station:TCOON:009:1,2009-03-05T21:00:00Z,27.8398,-97.0727,0.0,5.4,143.0,7.5,'11111222,11111222,11111222' 
TCOON,ioos:station:TCOON:009:1,2009-03-05T22:00:00Z,27.8398,-97.0727,0.0,6.7,136.0,9.0,'11111222,11111222,11111222' 
TCOON,ioos:station:TCOON:009:1,2009-03-05T23:00:00Z,27.8398,-97.0727,0.0,7.9,129.0,10.1,'11111222,11111222,11111222' 
TCOON,ioos:station:TCOON:009:1,2009-03-06T00:00:00Z,27.8398,-97.0727,0.0,6.4,132.0,9.0,'11111222,11111222,11111222' 
TCOON,ioos:station:TCOON:009:1,2009-03-06T01:00:00Z,27.8398,-97.0727,0.0,4.0,135.0,6.1,'11111222,11111222,11111222' 
TCOON,ioos:station:TCOON:009:1,2009-03-06T02:00:00Z,27.8398,-97.0727,0.0,3.8,136.0,5.2,'11111222,11111222,11111222' 
TCOON,ioos:station:TCOON:009:1,2009-03-06T03:00:00Z,27.8398,-97.0727,0.0,3.1,142.0,4.9,'11111222,11111222,11111222' 
TCOON,ioos:station:TCOON:009:1,2009-03-06T04:00:00Z,27.8398,-97.0727,0.0,3.0,142.0,4.9,'11111222,11111222,11111222' 
TCOON,ioos:station:TCOON:009:1,2009-03-06T05:00:00Z,27.8398,-97.0727,0.0,3.6,146.0,6.0,'11111222,11111222,11111222' 
TCOON,ioos:station:TCOON:009:1,2009-03-06T06:00:00Z,27.8398,-97.0727,0.0,3.6,149.0,5.3,'11111222,11111222,11111222' 
TCOON,ioos:station:TCOON:009:1,2009-03-06T07:00:00Z,27.8398,-97.0727,0.0,3.2,157.0,5.5,'11111222,11111222,11111222' 
TCOON,ioos:station:TCOON:009:1,2009-03-06T08:00:00Z,27.8398,-97.0727,0.0,3.2,160.0,4.9,'11111222,11111222,11111222' 
TCOON,ioos:station:TCOON:009:1,2009-03-06T09:00:00Z,27.8398,-97.0727,0.0,3.4,160.0,4.9,'11111222,11111222,11111222' 
TCOON,ioos:station:TCOON:009:1,2009-03-06T10:00:00Z,27.8398,-97.0727,0.0,3.3,159.0,5.5,'11111222,11111222,11111222' 
TCOON,ioos:station:TCOON:009:1,2009-03-06T11:00:00Z,27.8398,-97.0727,0.0,2.7,155.0,5.0,'11111222,11111222,11111222' 
TCOON,ioos:station:TCOON:009:1,2009-03-06T12:00:00Z,27.8398,-97.0727,0.0,3.5,156.0,5.0,'11111222,11111222,11111222' 
TCOON,ioos:station:TCOON:009:1,2009-03-06T13:00:00Z,27.8398,-97.0727,0.0,3.5,157.0,5.8,'11111222,11111222,11111222' 
TCOON,ioos:station:TCOON:009:1,2009-03-06T14:00:00Z,27.8398,-97.0727,0.0,4.0,156.0,6.1,'11111222,11111222,11111222' 
TCOON,ioos:station:TCOON:009:1,2009-03-06T15:00:00Z,27.8398,-97.0727,0.0,5.1,159.0,7.2,'11111222,11111222,11111222' 
TCOON,ioos:station:TCOON:009:1,2009-03-06T16:00:00Z,27.8398,-97.0727,0.0,5.5,160.0,8.6,'11111222,11111222,11111222' 
TCOON,ioos:station:TCOON:009:1,2009-03-06T17:00:00Z,27.8398,-97.0727,0.0,5.4,146.0,7.5,'11111222,11111222,11111222' 
TCOON,ioos:station:TCOON:009:1,2009-03-06T18:00:00Z,27.8398,-97.0727,0.0,5.5,155.0,8.7,'11111222,11111222,11111222' 
TCOON,ioos:station:TCOON:009:1,2009-03-06T19:00:00Z,27.8398,-97.0727,0.0,4.5,156.0,6.6,'11111222,11111222,11111222' 
TCOON,ioos:station:TCOON:009:1,2009-03-06T20:00:00Z,27.8398,-97.0727,0.0,5.5,144.0,8.8,'11111222,11111222,11111222' 
TCOON,ioos:station:TCOON:009:1,2009-03-06T21:00:00Z,27.8398,-97.0727,0.0,6.0,141.0,8.7,'11111222,11111222,11111222' 
TCOON,ioos:station:TCOON:009:1,2009-03-06T22:00:00Z,27.8398,-97.0727,0.0,5.1,141.0,7.3,'11111222,11111222,11111222' 
TCOON,ioos:station:TCOON:009:1,2009-03-06T23:00:00Z,27.8398,-97.0727,0.0,4.2,136.0,6.7,'11111222,11111222,11111222' 
TCOON,ioos:station:TCOON:009:1,2009-03-07T00:00:00Z,27.8398,-97.0727,0.0,4.9,131.0,6.8,'11111222,11111222,11111222' 
TCOON,ioos:station:TCOON:009:1,2009-03-07T01:00:00Z,27.8398,-97.0727,0.0,3.9,135.0,5.3,'11111222,11111222,11111222' 
TCOON,ioos:station:TCOON:009:1,2009-03-07T02:00:00Z,27.8398,-97.0727,0.0,4.0,134.0,6.0,'11111222,11111222,11111222' 
TCOON,ioos:station:TCOON:009:1,2009-03-07T03:00:00Z,27.8398,-97.0727,0.0,4.8,133.0,6.9,'11111222,11111222,11111222' 
TCOON,ioos:station:TCOON:009:1,2009-03-07T04:00:00Z,27.8398,-97.0727,0.0,3.2,142.0,5.2,'11111222,11111222,11111222' 
TCOON,ioos:station:TCOON:009:1,2009-03-07T05:00:00Z,27.8398,-97.0727,0.0,4.1,143.0,6.5,'11111222,11111222,11111222' 
TCOON,ioos:station:TCOON:009:1,2009-03-07T06:00:00Z,27.8398,-97.0727,0.0,4.3,141.0,6.3,'11111222,11111222,11111222' 
TCOON,ioos:station:TCOON:009:1,2009-03-07T07:00:00Z,27.8398,-97.0727,0.0,3.6,145.0,6.5,'11111222,11111222,11111222' 
TCOON,ioos:station:TCOON:009:1,2009-03-07T08:00:00Z,27.8398,-97.0727,0.0,4.6,145.0,7.0,'11111222,11111222,11111222' 
TCOON,ioos:station:TCOON:009:1,2009-03-07T09:00:00Z,27.8398,-97.0727,0.0,5.1,143.0,8.4,'11111222,11111222,11111222' 
TCOON,ioos:station:TCOON:009:1,2009-03-07T10:00:00Z,27.8398,-97.0727,0.0,4.5,149.0,8.4,'11111222,11111222,11111222' 
TCOON,ioos:station:TCOON:009:1,2009-03-07T11:00:00Z,27.8398,-97.0727,0.0,5.0,148.0,7.3,'11111222,11111222,11111222' 
TCOON,ioos:station:TCOON:009:1,2009-03-07T12:00:00Z,27.8398,-97.0727,0.0,3.5,154.0,5.1,'11111222,11111222,11111222' 
TCOON,ioos:station:TCOON:009:1,2009-03-07T13:00:00Z,27.8398,-97.0727,0.0,2.0,149.0,3.0,'11111222,11111222,11111222' 
TCOON,ioos:station:TCOON:009:1,2009-03-07T14:00:00Z,27.8398,-97.0727,0.0,2.9,152.0,4.2,'11111222,11111222,11111222' 
TCOON,ioos:station:TCOON:009:1,2009-03-07T15:00:00Z,27.8398,-97.0727,0.0,3.3,154.0,6.1,'11111222,11111222,11111222' 
TCOON,ioos:station:TCOON:009:1,2009-03-07T16:00:00Z,27.8398,-97.0727,0.0,4.6,154.0,7.1,'11111222,11111222,11111222' 
TCOON,ioos:station:TCOON:009:1,2009-03-07T17:00:00Z,27.8398,-97.0727,0.0,3.8,166.0,8.1,'11111222,11111222,11111222' 
TCOON,ioos:station:TCOON:009:1,2009-03-07T18:00:00Z,27.8398,-97.0727,0.0,4.5,158.0,7.0,'11111222,11111222,11111222' 
TCOON,ioos:station:TCOON:009:1,2009-03-07T19:00:00Z,27.8398,-97.0727,0.0,5.0,150.0,6.8,'11111222,11111222,11111222' 
TCOON,ioos:station:TCOON:009:1,2009-03-07T20:00:00Z,27.8398,-97.0727,0.0,4.3,158.0,15.4,'11111222,11111222,11111222' 
TCOON,ioos:station:TCOON:009:1,2009-03-07T21:00:00Z,27.8398,-97.0727,0.0,4.7,145.0,6.8,'11111222,11111222,11111222' 
TCOON,ioos:station:TCOON:009:1,2009-03-07T22:00:00Z,27.8398,-97.0727,0.0,4.7,138.0,6.5,'11111222,11111222,11111222' 
TCOON,ioos:station:TCOON:009:1,2009-03-07T23:00:00Z,27.8398,-97.0727,0.0,5.9,129.0,7.9,'11111222,11111222,11111222' 
TCOON,ioos:station:TCOON:009:1,2009-03-08T00:00:00Z,27.8398,-97.0727,0.0,4.4,130.0,5.5,'11111222,11111222,11111222' 
TCOON,ioos:station:TCOON:009:1,2009-03-08T01:00:00Z,27.8398,-97.0727,0.0,4.2,131.0,5.8,'11111222,11111222,11111222' 
TCOON,ioos:station:TCOON:009:1,2009-03-08T02:00:00Z,27.8398,-97.0727,0.0,4.5,133.0,6.8,'11111222,11111222,11111222' 
TCOON,ioos:station:TCOON:009:1,2009-03-08T03:00:00Z,27.8398,-97.0727,0.0,3.9,143.0,6.1,'11111222,11111222,11111222' 
TCOON,ioos:station:TCOON:009:1,2009-03-08T04:00:00Z,27.8398,-97.0727,0.0,4.0,143.0,5.9,'11111222,11111222,11111222' 
TCOON,ioos:station:TCOON:009:1,2009-03-08T05:00:00Z,27.8398,-97.0727,0.0,6.1,156.0,10.1,'11111222,11111222,11111222' 
TCOON,ioos:station:TCOON:009:1,2009-03-08T06:00:00Z,27.8398,-97.0727,0.0,4.5,146.0,6.1,'11111222,11111222,11111222' 
TCOON,ioos:station:TCOON:009:1,2009-03-08T07:00:00Z,27.8398,-97.0727,0.0,5.5,156.0,8.5,'11111222,11111222,11111222' 
TCOON,ioos:station:TCOON:009:1,2009-03-08T08:00:00Z,27.8398,-97.0727,0.0,4.0,157.0,5.8,'11111222,11111222,11111222' 
TCOON,ioos:station:TCOON:009:1,2009-03-08T09:00:00Z,27.8398,-97.0727,0.0,3.1,157.0,5.1,'11111222,11111222,11111222' 
TCOON,ioos:station:TCOON:009:1,2009-03-08T10:00:00Z,27.8398,-97.0727,0.0,2.5,154.0,4.3,'11111222,11111222,11111222' 
TCOON,ioos:station:TCOON:009:1,2009-03-08T11:00:00Z,27.8398,-97.0727,0.0,1.7,160.0,2.8,'11111222,11111222,11111222' 
TCOON,ioos:station:TCOON:009:1,2009-03-08T12:00:00Z,27.8398,-97.0727,0.0,1.8,155.0,2.9,'11111222,11111222,11111222' 
TCOON,ioos:station:TCOON:009:1,2009-03-08T13:00:00Z,27.8398,-97.0727,0.0,4.4,157.0,6.8,'11111222,11111222,11111222' 
TCOON,ioos:station:TCOON:009:1,2009-03-08T14:00:00Z,27.8398,-97.0727,0.0,2.8,153.0,5.4,'11111222,11111222,11111222' 
TCOON,ioos:station:TCOON:009:1,2009-03-08T15:00:00Z,27.8398,-97.0727,0.0,4.3,129.0,5.8,'11111222,11111222,11111222' 
TCOON,ioos:station:TCOON:009:1,2009-03-08T16:00:00Z,27.8398,-97.0727,0.0,4.2,134.0,5.8,'11111222,11111222,11111222' 
TCOON,ioos:station:TCOON:009:1,2009-03-08T17:00:00Z,27.8398,-97.0727,0.0,3.9,148.0,7.2,'11111222,11111222,11111222' 
TCOON,ioos:station:TCOON:009:1,2009-03-08T18:00:00Z,27.8398,-97.0727,0.0,4.0,153.0,6.3,'11111222,11111222,11111222' 
TCOON,ioos:station:TCOON:009:1,2009-03-08T19:00:00Z,27.8398,-97.0727,0.0,4.3,147.0,7.0,'11111222,11111222,11111222' 
TCOON,ioos:station:TCOON:009:1,2009-03-08T20:00:00Z,27.8398,-97.0727,0.0,3.7,143.0,5.5,'11111222,11111222,11111222' 
TCOON,ioos:station:TCOON:009:1,2009-03-08T21:00:00Z,27.8398,-97.0727,0.0,3.6,124.0,5.4,'11111222,11111222,11111222' 
TCOON,ioos:station:TCOON:009:1,2009-03-08T22:00:00Z,27.8398,-97.0727,0.0,3.5,107.0,5.3,'11111222,11111222,11111222' 
TCOON,ioos:station:TCOON:009:1,2009-03-08T23:00:00Z,27.8398,-97.0727,0.0,3.9,91.0,4.9,'11111222,11111222,11111222' 
TCOON,ioos:station:TCOON:009:1,2009-03-09T00:00:00Z,27.8398,-97.0727,0.0,4.5,83.0,5.3,'11111222,11111222,11111222' 
TCOON,ioos:station:TCOON:009:1,2009-03-09T01:00:00Z,27.8398,-97.0727,0.0,4.6,98.0,6.1,'11111222,11111222,11111222' 
TCOON,ioos:station:TCOON:009:1,2009-03-09T02:00:00Z,27.8398,-97.0727,0.0,5.4,106.0,7.0,'11111222,11111222,11111222' 
TCOON,ioos:station:TCOON:009:1,2009-03-09T03:00:00Z,27.8398,-97.0727,0.0,4.7,113.0,6.7,'11111222,11111222,11111222' 
TCOON,ioos:station:TCOON:009:1,2009-03-09T04:00:00Z,27.8398,-97.0727,0.0,3.5,111.0,5.1,'11111222,11111222,11111222' 
TCOON,ioos:station:TCOON:009:1,2009-03-09T05:00:00Z,27.8398,-97.0727,0.0,4.1,129.0,5.6,'11111222,11111222,11111222' 
TCOON,ioos:station:TCOON:009:1,2009-03-09T06:00:00Z,27.8398,-97.0727,0.0,3.6,143.0,6.3,'11111222,11111222,11111222' 
TCOON,ioos:station:TCOON:009:1,2009-03-09T07:00:00Z,27.8398,-97.0727,0.0,3.3,141.0,5.2,'11111222,11111222,11111222' 
TCOON,ioos:station:TCOON:009:1,2009-03-09T08:00:00Z,27.8398,-97.0727,0.0,3.9,154.0,6.4,'11111222,11111222,11111222' 
TCOON,ioos:station:TCOON:009:1,2009-03-09T09:00:00Z,27.8398,-97.0727,0.0,4.3,156.0,6.7,'11111222,11111222,11111222' 
TCOON,ioos:station:TCOON:009:1,2009-03-09T10:00:00Z,27.8398,-97.0727,0.0,3.9,151.0,5.7,'11111222,11111222,11111222' 
TCOON,ioos:station:TCOON:009:1,2009-03-09T11:00:00Z,27.8398,-97.0727,0.0,2.7,154.0,4.1,'11111222,11111222,11111222' 
TCOON,ioos:station:TCOON:009:1,2009-03-09T12:00:00Z,27.8398,-97.0727,0.0,2.6,152.0,4.3,'11111222,11111222,11111222' 
TCOON,ioos:station:TCOON:009:1,2009-03-09T13:00:00Z,27.8398,-97.0727,0.0,3.8,152.0,5.5,'11111222,11111222,11111222' 
TCOON,ioos:station:TCOON:009:1,2009-03-09T14:00:00Z,27.8398,-97.0727,0.0,3.6,145.0,5.6,'11111222,11111222,11111222' 
TCOON,ioos:station:TCOON:009:1,2009-03-09T15:00:00Z,27.8398,-97.0727,0.0,3.3,149.0,6.7,'11111222,11111222,11111222' 